DateTime,F1_A11,F1_S11,BsB_S11,BsG_S11,BsR_S11,BbsB_S11,BbsG_S11,BbsR_S11,BaB_A11,BaG_A11,BaR_A11,T_S11,U_S11,P_S11,T1_A11
2016-10-07T00:00:00Z,0000380,20000600,,,,,,,,,,27.8,01.5,0666.4,34.8
2016-10-07T00:01:00Z,0000380,20000600,,,,,,,,,,27.8,01.5,0666.4,34.8
2016-10-07T00:02:00Z,0000380,20000600,,,,,,,,,,27.8,01.5,0666.4,34.8
2016-10-07T00:03:00Z,0000380,60000600,,,,,,,,,,27.8,01.3,0666.4,34.8
2016-10-07T00:04:00Z,0000380,41000600,0001.71,0000.69,0000.42,-000.35,-000.17,-000.14,-000.05,-000.09,-000.02,27.8,01.4,0667.3,34.8
2016-10-07T00:05:00Z,0000380,01000600,0000.94,0000.26,0001.05,-000.70,0000.33,-000.18,0000.13,0000.07,0000.16,27.8,01.4,0667.4,34.8
2016-10-07T00:06:00Z,0000380,00000600,0001.16,0000.12,0000.32,0000.37,0000.06,-000.37,-000.06,0000.06,-000.13,27.8,01.3,0667.5,34.8
2016-10-07T00:07:00Z,0000380,01000600,0000.35,0000.32,0000.58,-000.22,-000.13,-000.30,0000.36,-000.03,0000.39,27.8,01.4,0667.4,34.8
2016-10-07T00:08:00Z,0000380,01000600,0001.31,0000.94,0000.14,0000.64,0000.43,-000.24,-000.22,0000.13,-000.14,27.8,01.3,0667.5,34.8
2016-10-07T00:09:00Z,0000380,01000600,0000.91,0000.82,0001.17,0000.22,-000.16,-000.08,0000.18,0000.07,0000.30,27.8,01.4,0667.5,34.8
2016-10-07T00:10:00Z,0000380,01000600,0001.04,0000.74,0001.04,-000.05,0000.14,-000.11,-000.24,0000.08,-000.44,27.8,01.3,0667.5,34.8
2016-10-07T00:11:00Z,0000380,01000600,0001.19,0000.95,0000.57,0000.49,0000.35,-000.14,-000.18,-000.20,0000.04,27.8,01.3,0667.6,34.8
2016-10-07T00:12:00Z,0000380,01000600,0000.45,0000.51,0000.95,0000.35,0000.52,0000.14,0000.10,0000.06,0000.00,27.8,01.4,0667.5,34.8
2016-10-07T00:13:00Z,0000380,01000600,0000.77,0001.01,0000.88,-000.56,0000.27,0000.05,0000.24,0000.00,-000.20,27.8,01.3,0667.6,34.8
2016-10-07T00:14:00Z,0000380,01000600,0001.44,0000.55,0000.24,0000.38,0000.30,-000.10,-000.27,0000.13,0000.40,27.8,01.3,0667.6,34.8
2016-10-07T00:15:00Z,0000380,01000600,0001.86,0001.03,0000.37,-000.03,0000.13,-000.33,0000.37,-000.06,0000.08,27.8,01.4,0667.6,34.8
2016-10-07T00:16:00Z,0000380,01000600,0000.97,0000.09,0000.29,0000.17,-000.05,-000.18,-000.22,0000.20,-000.40,27.8,01.3,0667.6,34.8
2016-10-07T00:17:00Z,0000380,01000600,0001.32,0000.69,0000.60,0000.27,0000.44,0000.02,0000.22,-000.18,0000.24,27.8,01.3,0667.7,34.8
2016-10-07T00:18:00Z,0000380,01000600,0000.73,0000.20,0000.68,-000.76,0000.33,0000.02,-000.07,-000.01,-000.17,27.8,01.3,0667.7,34.8
2016-10-07T00:19:00Z,0000380,01000600,0001.11,0001.09,0000.70,-000.19,0000.52,0000.08,-000.10,0000.15,0000.08,27.8,01.2,0667.7,34.8
2016-10-07T00:20:00Z,0000380,01000600,0000.43,-000.06,0000.50,0000.10,0000.33,-000.10,0000.09,0000.08,0000.10,27.8,01.2,0667.7,34.8
2016-10-07T00:21:00Z,0000380,01000600,0000.73,0000.18,0000.37,-000.67,0000.22,-000.06,0000.20,-000.12,0000.07,27.8,01.3,0667.7,34.8
2016-10-07T00:22:00Z,0000380,01000600,0000.83,0000.68,0000.79,0000.56,0000.38,-000.19,-000.15,0000.12,-000.03,27.8,01.2,0667.8,34.8
2016-10-07T00:23:00Z,0000380,01000600,0001.36,0000.58,0000.53,0000.32,-000.11,-000.03,0000.17,0000.08,-000.18,27.8,01.2,0667.7,34.8
2016-10-07T00:24:00Z,0000380,01000600,0000.24,0000.43,0000.81,0000.59,0000.46,0000.00,0000.07,-000.05,0000.44,27.8,01.3,0667.7,34.8
2016-10-07T00:25:00Z,0000380,01000600,0001.14,0000.43,-000.09,-000.57,0000.24,-000.33,-000.26,0000.21,-000.17,27.8,01.3,0667.7,34.8
2016-10-07T00:26:00Z,0000380,01000600,-000.15,0000.54,0000.56,0000.22,0000.36,0000.24,0000.41,0000.04,0000.09,27.8,01.3,0667.7,34.8
2016-10-07T00:27:00Z,0000380,01000600,0000.22,0000.08,0000.32,-000.08,0000.70,-000.22,-000.13,-000.22,0000.17,27.8,01.3,0667.6,34.8
2016-10-07T00:28:00Z,0000380,01000600,0001.32,0000.72,0000.29,0000.40,-000.06,0000.02,0000.00,0000.25,-000.09,27.8,01.3,0667.7,34.8
2016-10-07T00:29:00Z,0000380,01000600,0000.56,0000.79,-000.02,0000.49,0000.33,-000.38,0000.03,-000.03,-000.05,27.8,01.3,0667.8,34.8
2016-10-07T00:30:00Z,0000380,01000600,0001.19,0000.89,0000.30,0000.16,0000.59,-000.21,0000.29,-000.02,0000.01,27.8,01.3,0667.7,34.8
2016-10-07T00:31:00Z,0000380,01000600,0000.73,0000.32,0000.34,0000.27,-000.19,-000.02,-000.20,0000.11,0000.11,27.8,01.2,0667.8,34.8
2016-10-07T00:32:00Z,0000380,01000600,0001.49,0000.14,0000.45,0000.00,-000.06,0000.21,0000.15,0000.14,0000.08,27.8,01.3,0667.8,34.8
2016-10-07T00:33:00Z,0000380,01000600,0000.49,-000.16,0000.17,-000.10,-000.06,0000.10,-000.11,-000.15,0000.13,27.8,01.4,0667.9,34.8
2016-10-07T00:34:00Z,0000380,01000600,0000.96,0000.08,0000.15,0000.03,0000.13,0000.06,0000.12,-000.03,-000.54,27.8,01.3,0667.9,34.8
2016-10-07T00:35:00Z,0000380,01000600,0000.88,0000.63,0000.31,0000.08,0000.13,-000.16,0000.02,0000.23,0000.16,27.8,01.2,0667.9,34.8
2016-10-07T00:36:00Z,0000380,01000600,0001.07,0000.00,0000.52,0000.06,0000.09,0000.03,-000.07,-000.08,0000.26,27.8,01.3,0667.9,34.8
2016-10-07T00:37:00Z,0000380,01000600,0000.65,0000.31,0001.21,0000.29,0000.35,0000.02,0000.28,0000.01,-000.04,27.8,01.2,0667.9,34.8
2016-10-07T00:38:00Z,0000380,01000600,0000.25,0000.87,0000.42,-000.22,0000.03,0000.05,-000.15,0000.09,0000.09,27.8,01.3,0667.9,34.8
2016-10-07T00:39:00Z,0000380,01000600,0000.00,0000.77,0000.82,0000.11,0000.38,0000.35,-000.05,-000.01,0000.04,27.8,01.3,0667.9,34.8
2016-10-07T00:40:00Z,0000380,01000600,0000.41,0000.16,0000.89,0000.14,-000.33,-000.19,0000.29,0000.19,-000.18,27.8,01.3,0667.9,34.8
2016-10-07T00:41:00Z,0000380,01000600,0001.38,0001.06,0000.53,0000.54,-000.02,0000.08,-000.01,0000.05,0000.21,27.8,01.3,0668.0,34.8
2016-10-07T00:42:00Z,0000380,01000600,0000.43,0000.06,0000.99,0000.57,0000.41,0000.41,-000.11,0000.05,0000.00,27.8,01.3,0667.8,34.8
2016-10-07T00:43:00Z,0000380,00000600,0000.71,0000.53,0000.47,0000.16,-000.05,0000.21,0000.23,-000.02,0000.29,27.8,01.3,0667.9,34.8
2016-10-07T00:44:00Z,0000380,01000600,0000.65,0000.36,0000.77,-000.02,-000.06,0000.27,0000.25,0000.15,-000.05,27.8,01.4,0667.9,34.8
2016-10-07T00:45:00Z,0000380,01000600,0000.60,0000.84,0000.53,-000.10,0000.11,-000.10,-000.22,-000.09,-000.24,27.8,01.4,0668.0,34.8
2016-10-07T00:46:00Z,0000380,01000600,0000.90,0000.83,0000.62,-000.16,0000.16,-000.16,0000.07,-000.00,0000.41,27.8,01.3,0668.0,34.8
2016-10-07T00:47:00Z,0000380,01000600,0000.08,0000.59,0000.05,0001.18,0000.30,-000.24,0000.08,0000.00,-000.15,27.8,01.4,0668.0,34.8
2016-10-07T00:48:00Z,0000380,01000600,0000.28,0000.19,0000.09,0000.56,-000.28,0000.03,0000.11,-000.03,0000.09,27.8,01.4,0667.9,34.8
2016-10-07T00:49:00Z,0000380,01000600,0000.95,0000.22,0000.11,0000.38,0000.36,0000.27,0000.08,0000.16,0000.11,27.8,01.4,0668.0,34.8
2016-10-07T00:50:00Z,0000380,01000600,0000.85,0000.94,0000.08,0000.43,0000.16,-000.29,0000.05,-000.04,-000.18,27.8,01.4,0667.8,34.8
2016-10-07T00:51:00Z,0000380,00000600,0000.24,0000.66,0000.55,0000.45,-000.14,0000.02,0000.03,0000.08,-000.10,27.8,01.4,0667.9,34.8
2016-10-07T00:52:00Z,0000380,00000600,0002.40,0001.39,0000.51,0000.08,0000.03,0000.00,-000.10,0000.14,0000.11,27.8,01.4,0667.8,34.8
2016-10-07T00:53:00Z,0000380,01000600,0001.83,0000.19,0000.57,0000.35,0000.05,0000.14,0000.03,-000.15,0000.21,27.8,01.3,0668.0,34.8
2016-10-07T00:54:00Z,0000380,01000600,0000.44,0000.36,0000.64,0000.43,-000.17,0000.06,0000.05,0000.08,-000.01,27.8,01.3,0668.0,34.8
2016-10-07T00:55:00Z,0000380,01000600,0000.78,-000.02,0000.58,-000.27,0000.09,-000.24,0000.05,-000.16,-000.22,27.8,01.3,0668.1,34.8
2016-10-07T00:56:00Z,0000380,01000600,0000.91,0000.76,0000.58,-000.37,0000.41,0000.02,-000.07,0000.26,-000.04,27.8,01.4,0668.1,34.8
2016-10-07T00:57:00Z,0000380,40000600,,,,,,,,,,,,0667.9,34.8
2016-10-07T00:58:00Z,0000380,60000600,,,,,,,,,,27.8,01.3,0667.0,34.8
2016-10-07T00:59:00Z,0000380,20000600,,,,,,,,,,27.8,01.3,0667.0,34.8
2016-10-07T01:00:00Z,0000380,20000600,,,,,,,,,,27.8,01.3,0667.0,34.8
2016-10-07T01:01:00Z,0000380,20000600,,,,,,,,,,27.8,01.3,0667.0,34.8
2016-10-07T01:02:00Z,0000380,20000600,,,,,,,,,,27.8,01.3,0667.0,34.8
2016-10-07T01:03:00Z,0000380,60000600,,,,,,,,,,27.8,01.3,0667.0,34.8
2016-10-07T01:04:00Z,0000380,41000600,0000.21,0000.73,0000.85,-000.19,0000.36,0000.30,0000.34,-000.05,0000.14,27.8,01.2,0667.9,34.8
2016-10-07T01:05:00Z,0000380,01000600,0000.51,0000.14,0000.35,0000.38,0000.41,0000.11,0000.04,0000.15,-000.08,27.8,01.3,0668.0,34.8
2016-10-07T01:06:00Z,0000380,01000600,0000.80,-000.63,0000.37,0000.17,0000.52,0000.14,-000.02,-000.04,0000.36,27.8,01.3,0668.0,34.8
2016-10-07T01:07:00Z,0000380,01000600,0000.94,0000.39,0000.16,-000.86,0000.35,-000.21,-000.27,-000.02,-000.25,27.8,01.3,0668.0,34.8
2016-10-07T01:08:00Z,0000380,01000600,0000.56,0000.32,-000.26,-000.35,-000.28,-000.56,-000.02,0000.15,-000.11,27.8,01.2,0668.1,34.8
2016-10-07T01:09:00Z,0000380,01000600,0001.09,0000.90,0000.26,0000.44,0000.33,-000.19,0000.22,-000.13,0000.00,27.8,01.3,0668.2,34.8
2016-10-07T01:10:00Z,0000380,01000600,0001.46,0000.31,-000.07,-000.35,-000.17,-000.16,-000.09,0000.07,0000.26,27.8,01.2,0668.2,34.8
2016-10-07T01:11:00Z,0000380,01000600,0000.89,-000.12,-000.15,0000.30,0000.14,0000.40,-000.08,-000.05,-000.26,27.8,01.2,0668.2,34.8
2016-10-07T01:12:00Z,0000380,01000600,0000.60,-000.22,0000.13,-000.13,-000.05,-000.05,0000.18,0000.21,0000.11,27.8,01.1,0668.2,34.8
2016-10-07T01:13:00Z,0000380,01000600,0000.27,0000.54,-000.35,0000.21,0000.06,-000.27,-000.06,-000.07,0000.02,27.8,01.2,0668.2,34.8
2016-10-07T01:14:00Z,0000380,01000600,0000.03,0000.22,0000.17,-000.38,-000.24,0000.00,-000.04,-000.24,-000.06,27.8,01.1,0668.2,34.8
2016-10-07T01:15:00Z,0000380,01000600,0000.81,0000.45,-000.01,-000.44,-000.05,0000.05,-000.08,0000.03,-000.07,27.8,01.1,0668.2,34.8
2016-10-07T01:16:00Z,0000380,01000600,0001.08,0000.18,0000.38,-000.22,-000.06,-000.05,0000.17,0000.16,0000.07,27.8,01.1,0668.2,34.8
2016-10-07T01:17:00Z,0000380,01000600,0000.00,0000.86,0000.44,0000.05,0000.17,0000.21,0000.01,-000.14,-000.18,27.8,01.1,0668.2,34.8
2016-10-07T01:18:00Z,0000380,01000600,0000.10,0000.45,0000.57,0000.33,-000.09,-000.11,0000.02,0000.06,0000.32,27.8,01.1,0668.2,34.8
2016-10-07T01:19:00Z,0000380,01000600,-000.38,0000.51,-000.15,0000.38,0000.11,-000.29,0000.22,0000.18,-000.10,27.8,01.1,0668.1,34.8
2016-10-07T01:20:00Z,0000380,01000600,0001.23,0000.40,0000.06,-000.16,0000.43,-000.27,0000.07,0000.01,0000.22,27.8,01.0,0668.1,34.8
2016-10-07T01:21:00Z,0000380,01000600,0000.94,0001.34,-000.04,-000.27,0000.19,-000.08,-000.01,-000.09,-000.22,27.8,01.0,0668.2,34.8
2016-10-07T01:22:00Z,0000380,01000600,0001.47,0000.39,0000.52,0000.83,0000.35,0000.16,-000.13,0000.11,0000.14,27.8,01.0,0668.2,34.8
2016-10-07T01:23:00Z,0000380,01000600,0001.19,0000.58,0000.08,-000.29,0000.03,0000.06,0000.01,-000.20,-000.26,27.8,01.0,0668.3,34.8
2016-10-07T01:24:00Z,0000380,01000600,0001.09,0000.36,-000.21,-000.21,-000.17,-000.05,-000.11,0000.09,0000.25,27.8,01.0,0668.3,34.8
2016-10-07T01:25:00Z,0000380,01000600,0000.90,0000.25,-000.18,-000.64,0000.44,-000.05,0000.20,0000.04,-000.22,27.8,01.0,0668.3,34.8
2016-10-07T01:26:00Z,0000380,01000600,-000.25,0000.27,0000.28,-000.49,-000.16,0000.10,-000.15,0000.03,-000.16,27.8,01.0,0668.3,34.8
2016-10-07T01:27:00Z,0000380,01000600,0000.49,0000.17,0000.35,-000.30,0000.36,0000.11,0000.12,-000.12,0000.10,27.8,00.9,0668.3,34.8
2016-10-07T01:28:00Z,0000380,01000600,-000.48,0000.32,0000.41,-000.30,0000.27,0000.21,-000.11,-000.02,0000.12,27.8,01.0,0668.3,34.8
2016-10-07T01:29:00Z,0000380,01000600,0000.62,0000.07,0000.04,0000.05,0000.40,-000.05,0000.05,-000.01,0000.11,27.8,01.0,0668.3,34.8
2016-10-07T01:30:00Z,0000380,01000600,0000.98,0000.16,0000.65,0000.16,-000.06,-000.16,-000.09,-000.01,-000.26,27.8,01.0,0668.3,34.8
2016-10-07T01:31:00Z,0000380,01000600,0000.62,0000.26,0000.04,-000.16,0000.78,-000.16,0000.05,0000.09,0000.21,27.8,01.0,0668.3,34.8
2016-10-07T01:32:00Z,0000380,01000600,0000.51,0001.12,0000.27,0000.22,0000.35,-000.10,0000.28,-000.00,0000.19,27.8,00.9,0668.2,34.8
2016-10-07T01:33:00Z,0000380,01000600,-000.61,0000.54,0000.44,0000.11,-000.13,0000.14,0000.01,0000.26,-000.13,27.8,00.9,0668.2,34.8
2016-10-07T01:34:00Z,0000380,01000600,0000.63,0000.24,-000.35,-000.05,-000.19,0000.17,-000.16,-000.15,0000.08,27.8,01.0,0668.3,34.8
2016-10-07T01:35:00Z,0000380,01000600,-000.07,0000.56,0000.36,0000.00,0000.00,-000.19,0000.04,-000.04,-000.00,27.8,01.0,0668.3,34.8
2016-10-07T01:36:00Z,0000380,01000600,0000.22,0000.40,-000.24,-000.41,0000.14,-000.29,0000.16,0000.05,-000.07,27.8,00.9,0668.3,34.8
2016-10-07T01:37:00Z,0000380,01000600,0000.15,0000.09,0000.30,-000.49,0000.22,0000.10,0000.01,0000.10,-000.24,27.8,00.9,0668.3,34.8
2016-10-07T01:38:00Z,0000380,01000600,0000.46,0000.62,-000.01,0000.03,-000.05,-000.13,-000.01,0000.05,0000.40,27.8,00.9,0668.4,34.8
2016-10-07T01:39:00Z,0000380,01000600,0000.62,0000.27,-000.01,0000.30,-000.13,0000.25,0000.03,0000.07,0000.00,27.8,00.9,0668.3,34.8
2016-10-07T01:40:00Z,0000380,01000600,0000.41,-000.45,0000.53,0000.00,-000.03,0000.22,-000.02,-000.15,0000.16,27.8,00.9,0668.4,34.8
2016-10-07T01:41:00Z,0000380,01000600,0000.09,0000.43,0000.02,0000.02,0000.38,-000.62,0000.08,0000.04,-000.31,27.8,00.9,0668.4,34.8
2016-10-07T01:42:00Z,0000380,01000600,0000.30,0000.22,0000.29,-000.11,0000.22,0000.14,0000.11,0000.16,0000.22,27.8,00.9,0668.4,34.8
2016-10-07T01:43:00Z,0000380,01000600,0000.25,0000.34,0000.47,0000.06,0000.16,0000.24,0000.27,-000.14,-000.02,27.8,00.8,0668.4,34.8
2016-10-07T01:44:00Z,0000380,01000600,0000.11,0000.69,0000.44,-000.67,0000.47,-000.37,-000.20,0000.17,0000.12,27.8,00.9,0668.5,34.8
2016-10-07T01:45:00Z,0000380,01000600,0000.29,0000.76,-000.22,-000.19,0000.09,-000.21,-000.20,0000.04,-000.16,27.8,00.9,0668.4,34.8
2016-10-07T01:46:00Z,0000380,01000600,0000.71,0000.89,0000.32,0000.08,-000.40,0000.19,0000.03,-000.11,-000.09,27.8,00.9,0668.5,34.8
2016-10-07T01:47:00Z,0000380,01000600,0001.30,0001.00,-000.03,0000.37,0000.41,0000.33,0000.29,0000.05,0000.27,27.8,00.9,0668.5,34.8
2016-10-07T01:48:00Z,0000380,01000600,0000.65,0000.75,0000.26,0000.02,0000.60,0000.24,-000.14,0000.03,-000.15,27.8,00.9,0668.5,34.8
2016-10-07T01:49:00Z,0000380,01000600,0000.92,-000.11,-000.09,0000.37,0000.55,-000.13,0000.27,0000.02,0000.28,27.8,00.9,0668.5,34.8
2016-10-07T01:50:00Z,0000380,01000600,-000.12,0000.23,0000.04,0000.22,-000.21,-000.43,-000.17,-000.08,-000.50,27.8,00.9,0668.5,34.8
2016-10-07T01:51:00Z,0000380,01000600,0001.14,0000.22,0000.37,-000.06,0000.16,0000.43,-000.19,-000.09,0000.20,27.8,00.9,0668.5,34.8
2016-10-07T01:52:00Z,0000380,01000600,0000.82,-000.05,-000.03,-000.08,0000.00,0000.11,0000.12,0000.27,-000.18,27.8,00.9,0668.5,34.8
2016-10-07T01:53:00Z,0000380,01000600,0000.66,0000.05,-000.17,0000.19,-000.11,-000.29,-000.15,-000.19,0000.20,27.8,01.0,0668.6,34.8
2016-10-07T01:54:00Z,0000380,01000600,-000.37,0000.23,-000.08,0000.06,-000.06,0000.11,0000.02,0000.14,0000.30,27.8,00.8,0668.5,34.8
2016-10-07T01:55:00Z,0000380,01000600,0001.19,0000.44,0000.32,-000.03,0000.32,-000.32,0000.28,0000.06,-000.32,27.8,00.9,0668.5,34.8
2016-10-07T01:56:00Z,0000380,01000600,0001.26,0000.25,-000.07,-000.19,-000.08,-000.64,0000.02,-000.01,0000.27,27.8,00.9,0668.5,34.8
2016-10-07T01:57:00Z,0000380,41000600,,,,,,,,,,,,0668.7,34.8
2016-10-07T01:58:00Z,0000380,61000600,,,,,,,,,,27.7,01.0,0667.5,34.8
2016-10-07T01:59:00Z,0000380,20000600,,,,,,,,,,27.7,01.0,0667.5,34.8
2016-10-07T02:00:00Z,0000380,20000600,,,,,,,,,,27.7,01.0,0667.5,34.8
2016-10-07T02:01:00Z,0000380,21000600,,,,,,,,,,27.7,00.9,0667.5,34.8
2016-10-07T02:02:00Z,0000380,21000600,,,,,,,,,,27.7,00.8,0667.5,34.8
2016-10-07T02:03:00Z,0000380,61000600,,,,,,,,,,27.7,00.8,0667.5,34.8
2016-10-07T02:04:00Z,0000380,41000600,0000.80,0001.06,0000.61,0000.08,-000.44,0000.16,-000.08,-000.03,0000.13,27.8,00.9,0668.6,34.8
2016-10-07T02:05:00Z,0000380,01000600,0000.54,0000.73,0000.28,0000.14,0000.13,0000.05,0000.08,0000.16,-000.21,27.8,00.9,0668.6,34.8
2016-10-07T02:06:00Z,0000380,01000600,0000.46,0000.02,0000.25,-000.08,-000.09,-000.05,-000.17,-000.04,0000.18,27.8,00.9,0668.6,34.8
2016-10-07T02:07:00Z,0000380,01000600,0000.79,-000.06,0000.51,0000.25,-000.06,-000.13,0000.06,0000.06,-000.30,27.8,01.0,0668.6,34.8
2016-10-07T02:08:00Z,0000380,01000600,0001.02,0000.79,0000.83,-000.13,-000.28,0000.24,0000.14,0000.00,0000.53,27.8,00.9,0668.6,34.8
2016-10-07T02:09:00Z,0000380,01000600,0000.95,0000.14,0000.09,-000.05,-000.17,0000.43,-000.07,0000.17,-000.21,27.8,01.0,0668.6,34.8
2016-10-07T02:10:00Z,0000380,01000600,0000.15,0000.02,0000.61,0000.03,0000.27,0000.02,-000.10,-000.22,0000.15,27.8,01.0,0668.6,34.8
2016-10-07T02:11:00Z,0000380,01000600,0001.21,0001.06,0000.73,-000.48,-000.16,0000.27,0000.09,0000.01,-000.17,27.8,00.9,0668.7,34.8
2016-10-07T02:12:00Z,0000380,01000600,0000.46,0000.52,0000.30,-000.65,-000.27,0000.21,-000.02,0000.10,-000.05,27.8,00.9,0668.7,34.8
2016-10-07T02:13:00Z,0000380,01000600,0000.84,0000.83,0000.07,-000.49,0000.25,0000.10,0000.20,0000.13,0000.21,27.8,01.0,0668.6,34.8
2016-10-07T02:14:00Z,0000380,01000600,0001.20,-000.13,0000.76,-000.32,-000.16,0000.22,-000.15,-000.16,-000.00,27.8,01.1,0668.7,34.8
2016-10-07T02:15:00Z,0000380,01000600,0001.35,0000.85,0000.05,-000.44,-000.27,-000.13,0000.06,0000.23,0000.14,27.8,01.0,0668.6,34.8
2016-10-07T02:16:00Z,0000380,01000600,0000.53,0000.41,0000.62,0000.08,-000.21,0000.38,0000.09,-000.10,-000.08,27.8,01.0,0668.7,34.8
2016-10-07T02:17:00Z,0000380,01000600,0000.68,0000.73,0000.16,-000.35,-000.33,0000.40,0000.22,-000.03,0000.00,27.8,01.0,0668.7,34.8
2016-10-07T02:18:00Z,0000380,01000600,0000.51,0000.43,0000.41,-000.79,0000.16,0000.10,-000.06,0000.05,0000.04,27.8,01.0,0668.7,34.8
2016-10-07T02:19:00Z,0000380,01000600,0000.62,0000.54,0000.16,-000.73,-000.30,0000.22,-000.09,-000.06,-000.02,27.8,00.9,0668.7,34.8
2016-10-07T02:20:00Z,0000380,01000600,0000.94,0000.42,0000.26,-000.33,0000.66,0000.25,0000.09,0000.07,-000.19,27.8,01.0,0668.8,34.8
2016-10-07T02:21:00Z,0000380,01000600,0000.80,0000.47,0000.24,-000.14,-000.14,0000.35,0000.20,-000.03,0000.14,27.8,00.9,0668.8,34.8
2016-10-07T02:22:00Z,0000380,01000600,-000.72,0000.94,0000.30,0000.00,0000.41,-000.08,-000.30,-000.06,-000.20,27.8,00.9,0668.8,34.8
2016-10-07T02:23:00Z,0000380,01000600,0000.47,0000.23,0000.95,0000.05,-000.32,0000.43,-000.05,0000.20,0000.19,27.8,00.9,0668.8,34.8
2016-10-07T02:24:00Z,0000380,01000600,0000.37,0000.16,0000.46,-000.10,-000.05,0000.06,0000.26,-000.14,-000.07,27.8,00.8,0668.8,34.8
2016-10-07T02:25:00Z,0000380,01000600,0001.32,0000.62,0000.66,0000.38,0000.22,0000.38,-000.28,0000.22,0000.03,27.8,00.9,0668.9,34.8
2016-10-07T02:26:00Z,0000380,01000600,0000.59,0000.40,0000.67,-000.29,-000.17,0000.06,0000.02,-000.16,-000.11,27.8,00.8,0668.9,34.8
2016-10-07T02:27:00Z,0000380,01000600,0000.95,0000.49,0000.84,0000.11,-000.21,-000.11,-000.01,0000.00,-000.02,27.8,00.8,0668.9,34.8
2016-10-07T02:28:00Z,0000380,01000600,0001.24,0000.04,0000.04,-000.21,0000.03,0000.24,0000.01,-000.04,0000.13,27.8,00.8,0668.9,34.8
2016-10-07T02:29:00Z,0000380,01000600,0001.45,0000.28,0000.11,0000.46,-000.06,0000.10,0000.16,0000.09,0000.03,27.8,00.8,0668.9,34.8
2016-10-07T02:30:00Z,0000380,01000600,0000.90,-000.33,0000.98,-000.48,0000.00,0000.06,-000.08,-000.04,0000.30,27.8,00.9,0668.9,34.8
2016-10-07T02:31:00Z,0000380,01000600,0000.72,0000.35,0000.33,0000.49,0000.03,0000.06,-000.00,-000.05,-000.13,27.8,00.8,0668.9,34.8
2016-10-07T02:32:00Z,0000380,01000600,-000.02,0000.47,0000.52,-000.30,0000.21,0000.10,0000.08,0000.12,-000.10,27.8,00.8,0668.9,34.8
2016-10-07T02:33:00Z,0000380,01000600,0001.29,0000.20,0000.97,0000.13,-000.24,0000.08,0000.18,-000.01,0000.23,27.8,00.8,0668.9,34.8
2016-10-07T02:34:00Z,0000380,01000600,0001.52,0000.61,0000.27,-000.16,-000.11,-000.02,-000.07,0000.08,-000.08,27.8,00.9,0668.9,34.8
2016-10-07T02:35:00Z,0000380,01000600,0000.45,0000.76,0000.88,0000.03,0000.06,0000.46,-000.12,-000.02,-000.19,27.8,00.8,0669.0,34.8
2016-10-07T02:36:00Z,0000380,01000600,0001.77,0000.45,0000.06,0000.17,-000.13,0000.02,0000.28,0000.14,-000.04,27.8,00.8,0669.0,34.8
2016-10-07T02:37:00Z,0000380,01000600,0000.88,0000.47,-000.03,0000.30,-000.13,-000.13,-000.12,0000.11,0000.37,27.8,00.9,0669.0,34.8
2016-10-07T02:38:00Z,0000380,01000600,0000.38,0000.37,0000.51,-000.06,0000.19,0000.32,0000.04,-000.06,-000.19,27.8,00.9,0668.9,34.8
2016-10-07T02:39:00Z,0000380,01000600,0001.01,0000.60,0000.25,-000.05,0000.17,0000.32,-000.07,-000.02,0000.09,27.8,01.0,0668.9,34.8
2016-10-07T02:40:00Z,0000380,01000600,0000.61,0000.46,0000.47,-000.71,-000.14,0000.17,0000.25,0000.00,0000.24,27.8,01.0,0668.9,34.8
2016-10-07T02:41:00Z,0000380,01000600,0000.52,0000.45,0000.55,-000.94,-000.21,0000.25,0000.07,0000.11,-000.22,27.8,01.0,0668.9,34.8
2016-10-07T02:42:00Z,0000380,01000600,0001.04,0000.38,0000.46,-000.51,0000.03,0000.33,-000.13,0000.08,0000.22,27.8,01.1,0668.8,34.8
2016-10-07T02:43:00Z,0000380,01000600,-000.02,-000.02,0000.51,-000.68,-000.41,-000.14,0000.23,0000.26,0000.03,27.8,01.2,0668.7,34.8
2016-10-07T02:44:00Z,0000380,01000600,0000.65,0001.04,0000.75,0000.03,0000.16,0000.17,-000.23,-000.23,-000.10,27.8,01.2,0668.8,34.8
2016-10-07T02:45:00Z,0000380,01000600,0001.13,0000.35,0000.47,0000.25,-000.33,0000.17,0000.38,-000.02,0000.39,27.8,01.1,0668.8,34.8
2016-10-07T02:46:00Z,0000380,01000600,0001.55,0000.39,0000.30,0000.32,0000.08,0000.11,-000.17,0000.13,-000.30,27.8,01.2,0668.8,34.8
2016-10-07T02:47:00Z,0000380,01000600,0000.47,0000.52,0000.37,-000.60,-000.62,0000.30,-000.11,0000.09,0000.06,27.8,01.1,0668.8,34.8
2016-10-07T02:48:00Z,0000380,01000600,0001.56,0000.42,0000.44,0000.30,-000.21,0000.16,0000.05,-000.14,0000.20,27.8,01.1,0668.8,34.8
2016-10-07T02:49:00Z,0000380,01000600,0001.12,0000.28,0000.53,-000.25,-000.13,0000.16,0000.14,0000.18,-000.15,27.8,01.1,0668.8,34.8
2016-10-07T02:50:00Z,0000380,01000600,0000.99,0001.11,0000.43,-000.24,-000.02,-000.03,-000.02,-000.08,-000.49,27.8,01.0,0668.8,34.8
2016-10-07T02:51:00Z,0000380,01000600,-000.04,0000.65,0000.73,-000.37,-000.11,0000.11,-000.10,0000.11,0000.39,27.8,01.0,0668.8,34.8
2016-10-07T02:52:00Z,0000380,01000600,-000.04,0000.06,0000.09,0000.37,-000.25,0000.54,0000.20,-000.00,-000.02,27.8,01.0,0668.9,34.8
2016-10-07T02:53:00Z,0000380,01000600,0000.61,0000.47,0000.48,0000.46,-000.27,0000.19,-000.01,-000.06,0000.34,27.8,01.0,0668.9,34.8
2016-10-07T02:54:00Z,0000380,01000600,0001.53,0000.19,0001.17,-000.44,0000.22,0000.24,-000.22,0000.06,-000.21,27.8,01.0,0668.9,34.8
2016-10-07T02:55:00Z,0000380,01000600,0001.07,0000.13,0000.22,-000.40,-000.28,0000.00,0000.19,0000.08,-000.09,27.9,01.0,0668.9,34.8
2016-10-07T02:56:00Z,0000380,01000600,0000.90,0000.68,0000.38,-000.65,-000.33,0000.08,-000.02,-000.12,0000.31,27.8,00.9,0668.9,34.8
2016-10-07T02:57:00Z,0000380,41000600,,,,,,,,,,,,0669.0,34.8
2016-10-07T02:58:00Z,0000380,61000600,,,,,,,,,,27.8,00.8,0667.9,34.8
2016-10-07T02:59:00Z,0000380,21000600,,,,,,,,,,27.8,00.9,0667.8,34.8
2016-10-07T03:00:00Z,0000380,21000600,,,,,,,,,,27.8,00.9,0667.9,34.8
2016-10-07T03:01:00Z,0000380,21000600,,,,,,,,,,27.8,00.8,0667.9,34.8
2016-10-07T03:02:00Z,0000380,21000600,,,,,,,,,,27.8,00.8,0667.9,34.8
2016-10-07T03:03:00Z,0000380,61000600,,,,,,,,,,27.9,00.8,0667.9,34.8
2016-10-07T03:04:00Z,0000380,41000600,-000.32,0001.09,0000.67,-000.59,0000.27,-000.02,-000.00,0000.14,-000.01,27.9,00.9,0668.9,34.8
2016-10-07T03:05:00Z,0000380,01000600,0001.39,0000.42,0000.03,-000.35,-000.14,-000.11,0000.10,-000.06,0000.10,27.9,01.0,0669.0,34.8
2016-10-07T03:06:00Z,0000380,01000600,0000.59,0000.38,0000.74,-000.14,0000.24,0000.13,-000.04,0000.08,0000.05,27.9,01.0,0669.0,34.8
2016-10-07T03:07:00Z,0000380,01000600,0000.05,0000.55,0000.14,0000.02,-000.09,0000.11,0000.15,0000.03,0000.05,27.9,01.0,0669.0,34.8
2016-10-07T03:08:00Z,0000380,01000600,-000.06,0001.28,0000.75,-000.36,0000.54,0000.13,-000.02,-000.03,0000.02,27.8,01.0,0669.0,34.8
2016-10-07T03:09:00Z,0000380,01000600,0000.65,-000.02,0000.24,0000.29,0000.14,0000.00,0000.05,0000.12,-000.09,27.9,00.9,0669.0,34.8
2016-10-07T03:10:00Z,0000380,01000600,0001.24,0000.47,0000.04,0000.65,0000.30,0000.05,0000.13,0000.08,-000.12,27.9,01.0,0669.0,34.8
2016-10-07T03:11:00Z,0000380,01000600,-000.48,-000.12,0000.28,0000.33,0000.27,0000.02,-000.14,0000.01,0000.05,27.9,00.9,0669.0,34.8
2016-10-07T03:12:00Z,0000380,01000600,0000.54,0000.18,0000.56,0000.27,-000.16,0000.22,0000.20,-000.07,0000.18,27.9,00.9,0669.1,34.8